Weather in Nyukhcha

Russia / Arkhangel'skaya Oblast'     63°26′31″N   46°31′33″E
temp.,
°C
wind,
m/s
gust,
m/s
humid.,
%
clouds,
%
prec.,
mm/h
press.,
hPa
HPBL,
m
22 october, fri
fri2200:000s3798100 0.3 983287
03:00+2s3999100 0.9 982287
06:00+3s3899100 0.1 981256
09:00+3se2799100 0.1 979246
12:00+3ese3899100 2.3 977229
15:00+3se14100100 5.8 975124
18:00+6wsw61491100 2.7 9771167
21:00+4wsw61385100 2.8 9801026
23 october, sat
sat2300:00+3wsw61388100 0.0 982737
03:00+3wsw51291100 0.0 984629
06:00+2wsw4998100 0.0 986705
09:00−1n3596100 0.4 990287
12:000n3586100 0.4 994552
15:000n268496 0.4 997558
18:00−3n279618 0.0 1001219
21:00−2n369293 0.0 1003354
24 october, sun
sun2400:00−1n248160 0.0 1005452
03:00−3n2693100 0.0 1006150
06:00−4n2688100 0.0 1007197
09:00−3nne2581100 0.0 1008226
12:00−1nw2475100 0.0 1009473
15:00−1nw3785100 0.0 1010584
18:00−2wnw3889100 0.0 1011586
21:00−2wnw488598 0.0 1011633
25 october, mon
mon2500:00−3w4108885 0.0 1011586
03:00−3w5129397 0.4 1011762
06:00−2wnw61182100 0.1 1011941
09:00−2nw6127863 0.4 10121031
12:00−1nw5978100 0.0 1015931
15:00−1nw487963 0.1 1016637
18:00−3wnw248782 0.0 1017197
21:00−3wsw2494100 0.0 1017111
26 october, tue
tue2600:00−4ssw149899 0.0 1017129
03:00−4sse1499100 0.0 1016114
06:00−4se2595100 0.0 1014207
09:00−3se2689100 0.0 1013304
12:00−1se368493 0.0 1012527
15:00−2se379276 0.2 1010490
18:00−2se3895100 0.1 1009397
21:00−2se3896100 0.3 1007357